• en Suisse
  • Liste des pays
  • À 7 jours
  • Température de l'eau
  • Carte satellitaire
  • Carte météo
  • Widgets météo
  • user-avatar
    Se connecter

    Météo par heure à Rodnichnyy Dol

    Ce jour, 23 Octobre, Mardi

    Heure Température Précipitation Vent Pression Humidité
    00:00 +4°C° 0 mm 1 m/s 758 mmHg 65%
    01:00 +4°C° 0 mm 1 m/s 758 mmHg 65%
    02:00 +4°C° 0 mm 1 m/s 757 mmHg 66%
    03:00 +3°C° 0 mm 1 m/s 757 mmHg 66%
    04:00 +2°C° 0 mm 0 m/s 757 mmHg 69%
    05:00 +2°C° 0 mm 1 m/s 757 mmHg 69%
    06:00 +2°C° 0 mm 1 m/s 757 mmHg 70%
    07:00 +2°C° 0 mm 1 m/s 756 mmHg 71%
    08:00 +4°C° 0 mm 1 m/s 756 mmHg 64%
    09:00 +5°C° 0 mm 2 m/s 756 mmHg 58%
    10:00 +6°C° 0 mm 2 m/s 756 mmHg 50%
    11:00 +8°C° 0 mm 3 m/s 755 mmHg 47%
    12:00 +9°C° 0 mm 3 m/s 755 mmHg 43%
    13:00 +11°C° 0 mm 4 m/s 754 mmHg 40%
    14:00 +11°C° 0 mm 4 m/s 754 mmHg 40%
    15:00 +11°C° 0 mm 4 m/s 753 mmHg 40%
    16:00 +12°C° 0 mm 4 m/s 752 mmHg 40%
    17:00 +11°C° 0 mm 4 m/s 752 mmHg 44%
    18:00 +10°C° 0 mm 4 m/s 751 mmHg 48%
    19:00 +9°C° 0 mm 3 m/s 751 mmHg 53%
    20:00 +8°C° 0 mm 4 m/s 750 mmHg 55%
    21:00 +10°C° 0 mm 4 m/s 750 mmHg 58%
    22:00 +9°C° 0 mm 5 m/s 749 mmHg 61%
    23:00 +10°C° 0 mm 5 m/s 749 mmHg 62%

    Demain, 24 Octobre, Mercredi

    Heure Température Précipitation Vent Pression Humidité
    00:00 +10°C° 0 mm 5 m/s 749 mmHg 63%
    01:00 +10°C° 0 mm 6 m/s 748 mmHg 63%
    02:00 +10°C° 0 mm 6 m/s 748 mmHg 66%
    03:00 +10°C° 0 mm 6 m/s 748 mmHg 68%
    04:00 +10°C° 0 mm 6 m/s 748 mmHg 70%
    05:00 +9°C° 0 mm 6 m/s 747 mmHg 74%
    06:00 +9°C° 0 mm 6 m/s 747 mmHg 78%
    07:00 +8°C° 0 mm 6 m/s 747 mmHg 81%
    08:00 +9°C° 0 mm 6 m/s 747 mmHg 80%
    09:00 +10°C° 0 mm 7 m/s 747 mmHg 78%
    10:00 +10°C° 0 mm 7 m/s 747 mmHg 76%
    11:00 +11°C° 0 mm 7 m/s 747 mmHg 74%
    12:00 +11°C° 0 mm 6 m/s 746 mmHg 71%
    13:00 +13°C° 0 mm 6 m/s 746 mmHg 68%
    14:00 +13°C° 0 mm 6 m/s 746 mmHg 67%
    15:00 +14°C° 0 mm 5 m/s 746 mmHg 66%
    16:00 +14°C° 0 mm 5 m/s 745 mmHg 64%
    17:00 +14°C° 0 mm 4 m/s 745 mmHg 66%
    18:00 +13°C° 0 mm 4 m/s 745 mmHg 68%
    19:00 +13°C° 0 mm 3 m/s 745 mmHg 69%
    20:00 +12°C° 0 mm 4 m/s 745 mmHg 70%
    21:00 +12°C° 0 mm 4 m/s 745 mmHg 70%
    22:00 +11°C° 0 mm 4 m/s 745 mmHg 71%
    23:00 +11°C° 0 mm 4 m/s 745 mmHg 71%

    Après-demain, 25 Octobre, Jeudi

    Heure Température Précipitation Vent Pression Humidité
    00:00 +10°C° 0 mm 4 m/s 745 mmHg 72%
    01:00 +10°C° 0 mm 4 m/s 745 mmHg 73%
    02:00 +8°C° 0 mm 4 m/s 745 mmHg 76%
    03:00 +8°C° 0 mm 4 m/s 745 mmHg 78%
    04:00 +8°C° 0 mm 5 m/s 744 mmHg 81%
    05:00 +8°C° 0 mm 5 m/s 744 mmHg 80%
    06:00 +8°C° 0 mm 5 m/s 744 mmHg 80%
    07:00 +7°C° 0 mm 6 m/s 743 mmHg 80%
    08:00 +9°C° 0 mm 6 m/s 743 mmHg 75%
    09:00 +10°C° 0 mm 7 m/s 743 mmHg 70%
    10:00 +12°C° 0 mm 7 m/s 743 mmHg 64%
    11:00 +13°C° 0 mm 8 m/s 742 mmHg 59%
    12:00 +16°C° 0 mm 9 m/s 741 mmHg 54%
    13:00 +18°C° 0 mm 9 m/s 741 mmHg 49%
    14:00 +18°C° 0 mm 9 m/s 740 mmHg 49%
    15:00 +18°C° 0 mm 8 m/s 740 mmHg 48%
    16:00 +20°C° 0 mm 7 m/s 739 mmHg 47%
    17:00 +18°C° 0 mm 8 m/s 739 mmHg 49%
    18:00 +18°C° 0 mm 8 m/s 739 mmHg 50%
    19:00 +17°C° 0 mm 8 m/s 739 mmHg 52%
    20:00 +17°C° 0 mm 9 m/s 738 mmHg 50%
    21:00 +17°C° 0 mm 9 m/s 738 mmHg 48%
    22:00 +17°C° 0 mm 9 m/s 738 mmHg 46%
    23:00 +17°C° 0.1 mm 9 m/s 738 mmHg 45%

    26 Octobre, Vendredi

    Heure Température Précipitation Vent Pression Humidité
    00:00 +16°C° 0.1 mm 9 m/s 737 mmHg 43%
    01:00 +16°C° 0.1 mm 9 m/s 737 mmHg 42%
    02:00 +16°C° 0 mm 8 m/s 737 mmHg 43%
    03:00 +16°C° 0 mm 7 m/s 737 mmHg 43%
    04:00 +15°C° 0 mm 7 m/s 737 mmHg 43%
    05:00 +15°C° 0.3 mm 6 m/s 737 mmHg 50%
    06:00 +14°C° 0.3 mm 6 m/s 737 mmHg 57%
    07:00 +13°C° 0.3 mm 5 m/s 737 mmHg 64%
    08:00 +13°C° 0.3 mm 5 m/s 738 mmHg 69%
    09:00 +13°C° 0.3 mm 4 m/s 739 mmHg 75%
    10:00 +12°C° 0.3 mm 4 m/s 739 mmHg 81%
    11:00 +12°C° 0 mm 4 m/s 740 mmHg 72%
    12:00 +13°C° 0 mm 5 m/s 740 mmHg 64%
    13:00 +13°C° 0 mm 5 m/s 741 mmHg 55%
    14:00 +12°C° 0 mm 5 m/s 741 mmHg 52%
    15:00 +12°C° 0 mm 4 m/s 741 mmHg 49%
    16:00 +11°C° 0 mm 4 m/s 742 mmHg 46%
    17:00 +11°C° 0 mm 4 m/s 742 mmHg 49%
    18:00 +10°C° 0 mm 3 m/s 743 mmHg 52%
    19:00 +9°C° 0 mm 3 m/s 743 mmHg 56%
    20:00 +9°C° 0 mm 3 m/s 744 mmHg 58%
    21:00 +8°C° 0 mm 3 m/s 744 mmHg 60%
    22:00 +7°C° 0 mm 4 m/s 745 mmHg 62%
    23:00 +7°C° 0 mm 3 m/s 745 mmHg 65%

    27 Octobre, Samedi

    Heure Température Précipitation Vent Pression Humidité
    00:00 +7°C° 0 mm 3 m/s 745 mmHg 67%
    01:00 +5°C° 0 mm 3 m/s 746 mmHg 70%
    02:00 +5°C° 0 mm 3 m/s 746 mmHg 72%
    03:00 +5°C° 0 mm 2 m/s 746 mmHg 74%
    04:00 +4°C° 0 mm 2 m/s 747 mmHg 76%
    05:00 +4°C° 0 mm 2 m/s 747 mmHg 76%
    06:00 +4°C° 0 mm 2 m/s 747 mmHg 77%
    07:00 +4°C° 0 mm 2 m/s 747 mmHg 77%
    08:00 +5°C° 0 mm 2 m/s 748 mmHg 72%
    09:00 +5°C° 0 mm 3 m/s 748 mmHg 67%
    10:00 +7°C° 0 mm 3 m/s 748 mmHg 63%
    11:00 +6°C° 0 mm 4 m/s 748 mmHg 60%
    12:00 +7°C° 0 mm 4 m/s 748 mmHg 57%
    13:00 +7°C° 0 mm 5 m/s 748 mmHg 54%
    14:00 +7°C° 0 mm 5 m/s 749 mmHg 52%
    15:00 +7°C° 0 mm 5 m/s 749 mmHg 50%
    16:00 +7°C° 0 mm 5 m/s 749 mmHg 48%
    17:00 +6°C° 0 mm 4 m/s 750 mmHg 50%
    18:00 +5°C° 0 mm 4 m/s 750 mmHg 53%
    19:00 +4°C° 0 mm 3 m/s 751 mmHg 56%
    20:00 +4°C° 0 mm 3 m/s 751 mmHg 58%
    21:00 +3°C° 0 mm 3 m/s 751 mmHg 61%
    22:00 +3°C° 0 mm 3 m/s 752 mmHg 63%
    23:00 +3°C° 0 mm 4 m/s 752 mmHg 65%

    28 Octobre, Dimanche

    Heure Température Précipitation Vent Pression Humidité
    00:00 +3°C° 0 mm 4 m/s 752 mmHg 68%
    01:00 +3°C° 0 mm 4 m/s 752 mmHg 70%
    02:00 +2°C° 0 mm 5 m/s 752 mmHg 70%
    03:00 +2°C° 0 mm 6 m/s 752 mmHg 70%
    04:00 +2°C° 0 mm 6 m/s 751 mmHg 70%
    05:00 +3°C° 0 mm 7 m/s 751 mmHg 70%
    06:00 +2°C° 0 mm 8 m/s 751 mmHg 70%
    07:00 +2°C° 0 mm 9 m/s 751 mmHg 71%
    08:00 +3°C° 0.4 mm 10 m/s 750 mmHg 71%
    09:00 +4°C° 0.4 mm 11 m/s 750 mmHg 71%
    10:00 +6°C° 0.4 mm 11 m/s 750 mmHg 71%
    11:00 +6°C° 1.5 mm 11 m/s 749 mmHg 75%
    12:00 +6°C° 1.5 mm 11 m/s 749 mmHg 79%
    13:00 +7°C° 1.5 mm 11 m/s 749 mmHg 84%
    14:00 +7°C° 1 mm 11 m/s 749 mmHg 84%
    15:00 +8°C° 1 mm 10 m/s 749 mmHg 84%
    16:00 +9°C° 1 mm 10 m/s 749 mmHg 84%
    17:00 +9°C° 0.2 mm 8 m/s 750 mmHg 82%
    18:00 +8°C° 0.2 mm 7 m/s 751 mmHg 80%
    19:00 +8°C° 0.2 mm 5 m/s 752 mmHg 78%
    20:00 +7°C° 0 mm 5 m/s 753 mmHg 77%
    21:00 +7°C° 0 mm 4 m/s 753 mmHg 77%
    22:00 +6°C° 0 mm 4 m/s 754 mmHg 77%
    23:00 +6°C° 0 mm 4 m/s 754 mmHg 78%

    29 Octobre, Lundi

    Heure Température Précipitation Vent Pression Humidité
    00:00 +5°C° 0 mm 4 m/s 755 mmHg 79%
    01:00 +5°C° 0 mm 4 m/s 755 mmHg 80%
    02:00 +4°C° 0 mm 4 m/s 755 mmHg 81%
    03:00 +4°C° 0 mm 4 m/s 756 mmHg 82%
    04:00 +4°C° 0 mm 4 m/s 756 mmHg 82%
    05:00 +3°C° 0 mm 4 m/s 757 mmHg 83%
    06:00 +3°C° 0 mm 4 m/s 757 mmHg 85%
    07:00 +3°C° 0 mm 3 m/s 758 mmHg 86%
    08:00 +4°C° 0 mm 4 m/s 758 mmHg 81%
    09:00 +4°C° 0 mm 4 m/s 759 mmHg 76%
    10:00 +5°C° 0 mm 4 m/s 759 mmHg 71%
    11:00 +6°C° 0 mm 4 m/s 760 mmHg 66%
    12:00 +7°C° 0 mm 4 m/s 760 mmHg 62%
    13:00 +8°C° 0 mm 4 m/s 760 mmHg 57%
    14:00 +9°C° 0 mm 3 m/s 760 mmHg 58%
    15:00 +8°C° 0 mm 3 m/s 761 mmHg 59%
    16:00 +8°C° 0 mm 2 m/s 761 mmHg 60%
    17:00 +8°C° 0 mm 2 m/s 761 mmHg 63%
    18:00 +9°C° 0 mm 1 m/s 761 mmHg 66%
    19:00 +8°C° 0 mm 1 m/s 762 mmHg 68%
    20:00 +8°C° 0.1 mm 1 m/s 762 mmHg 71%
    21:00 +8°C° 0.1 mm 1 m/s 762 mmHg 73%
    22:00 +8°C° 0.1 mm 1 m/s 762 mmHg 76%
    23:00 +8°C° 0 mm 1 m/s 762 mmHg 76%
    Voir plus